This demonstration page uses our WeatherBlox Daily Observations layout. Learn more.

41.55636, -103.73856

Hourly Observations for December 16, 2015

Temp ( °F °C ) Dew Point ( °F °C ) Humidity (%) Winds ( mph kmh ) Pressure ( in mb ) Visibility ( mi km ) Precip ( " mm )
12:17 am 00:17 Windy with Snow Likely 25 -4 18 -8 74 74 NW 23 37 29.85 1011 5 8.04672 0.001 0.001
12:53 am 00:53 Cloudy 21 -6 16 -9 80 80 NW 21 33 29.88 1012 10 16.09344 0.001 0.001
1:53 am 01:53 Partly Cloudy 21 -6 16 -9 80 80 NW 20 31 29.88 1012 10 16.09344 0 0
2:53 am 02:53 Partly Cloudy 21 -6 16 -9 80 80 NW 14 22 29.88 1012 10 16.09344 0 0
3:53 am 03:53 Clear 21 -6 14 -10 74 74 NW 17 28 29.88 1012 10 16.09344 0 0
4:53 am 04:53 Clear 21 -6 14 -10 74 74 NW 16 26 29.94 1014 10 16.09344 0 0
5:53 am 05:53 Clear 21 -6 14 -10 74 74 NW 22 35 29.94 1014 10 16.09344 0 0
6:53 am 06:53 Clear 21 -6 12 -11 68 68 WNW 20 31 29.97 1015 10 16.09344 0 0
7:53 am 07:53 Sunny 18 -8 10 -12 73 73 WNW 7 11 30 1016 10 16.09344 0 0
8:53 am 08:53 Sunny 23 -5 12 -11 63 63 WNW 14 22 29.97 1015 10 16.09344 0 0
9:53 am 09:53 Sunny 23 -5 12 -11 63 63 WNW 12 19 30.03 1017 10 16.09344 0 0
10:53 am 10:53 Sunny 27 -3 12 -11 54 54 WNW 14 22 29.94 1014 10 16.09344 0 0
11:53 am 11:53 Sunny 28 -2 16 -9 59 59 W 22 35 29.94 1014 10 16.09344 0 0
12:53 pm 12:53 Sunny 30 -1 18 -8 59 59 W 16 26 29.91 1013 10 16.09344 0 0
1:53 pm 13:53 Sunny 30 -1 16 -9 55 55 WNW 16 26 29.88 1012 10 16.09344 0 0
2:53 pm 14:53 Sunny 30 -1 16 -9 55 55 WNW 17 28 29.91 1013 10 16.09344 0 0
3:53 pm 15:53 Sunny 27 -3 14 -10 59 59 NW 9 15 29.97 1015 10 16.09344 0 0
4:53 pm 16:53 Mostly Clear 25 -4 14 -10 63 63 WNW 10 17 30 1016 10 16.09344 0 0
5:53 pm 17:53 Mostly Cloudy 21 -6 12 -11 68 68 WNW 3 6 30.06 1018 10 16.09344 0 0
6:53 pm 18:53 Mostly Cloudy 19 -7 12 -11 73 73 N 3 6 30.12 1020 10 16.09344 0 0
7:53 pm 19:53 Cloudy 19 -7 12 -11 73 73 Calm 30.12 1020 10 16.09344 0 0
8:53 pm 20:53 Clear 16 -9 10 -12 79 79 NW 5 7 30.15 1021 10 16.09344 0 0
9:53 pm 21:53 Clear 10 -12 7 -14 85 85 Calm 30.21 1023 10 16.09344 0 0
10:53 pm 22:53 Clear 9 -13 3 -16 78 78 N 7 11 30.24 1024 10 16.09344 0 0
11:53 pm 23:53 Clear 10 -12 5 -15 79 79 Calm 30.21 1023 10 16.09344 0 0

Powered by AerisWeather